This is the latest recevied weather packets stored in our database for station/object NC4M. If no packets are shown the sender has not sent any weather packets the latest 10 day(s).
| Time | Temp. | Humidity | Pressure | Rain* | Wind** | Luminosity | Snow |
|---|---|---|---|---|---|---|---|
| 1787407670 | 25° C | 83% | 1018 hPa | 0 mm | - | 92 W/m² | - |
| 1787407366 | 24.44° C | 82% | 1018.2 hPa | 0 mm | - | 83 W/m² | - |
| 1787407061 | 24.44° C | 83% | 1018.3 hPa | 0 mm | - | 67 W/m² | - |
| 1787406757 | 24.44° C | 83% | 1018.5 hPa | 0 mm | - | 63 W/m² | - |
| 1787406452 | 23.89° C | 83% | 1018.4 hPa | 0 mm | - | 61 W/m² | - |
| 1787406148 | 23.89° C | 82% | 1018.2 hPa | 0 mm | - | 59 W/m² | - |
| 1787405844 | 23.89° C | 84% | 1018.2 hPa | 0 mm | - | 57 W/m² | - |
| 1787405541 | 23.33° C | 86% | 1018.2 hPa | 0 mm | - | 60 W/m² | - |
| 1787405240 | 23.33° C | 86% | 1018 hPa | 0 mm | - | 52 W/m² | - |
| 1787404938 | 22.78° C | 87% | 1018 hPa | 0 mm | - | 50 W/m² | - |
| 1787404633 | 22.78° C | 90% | 1018.1 hPa | 0 mm | - | 48 W/m² | - |
| 1787404332 | 22.22° C | 94% | 1018.2 hPa | 0 mm | - | 45 W/m² | - |
| 1787404028 | 21.67° C | 97% | 1018.3 hPa | 0 mm | - | 41 W/m² | - |
| 1787403723 | 21.67° C | 98% | 1018.4 hPa | 0 mm | - | 44 W/m² | - |
| 1787403422 | 21.11° C | 98% | 1018.4 hPa | 0 mm | - | 42 W/m² | - |
| 1787403118 | 21.11° C | 98% | 1018.1 hPa | 0 mm | - | 40 W/m² | - |
| 1787402814 | 21.11° C | 98% | 1018 hPa | 0 mm | - | 37 W/m² | - |
| 1787402514 | 20.56° C | 98% | 1018 hPa | 0 mm | - | 35 W/m² | - |
| 1787402213 | 20.56° C | 98% | 1018 hPa | 0 mm | - | 35 W/m² | - |
| 1787401909 | 20.56° C | 98% | 1017.9 hPa | 0 mm | - | 31 W/m² | - |
| 1787401605 | 20.56° C | 98% | 1017.8 hPa | 0 mm | - | 28 W/m² | - |
| 1787401300 | 20° C | 98% | 1017.6 hPa | 0 mm | - | 26 W/m² | - |
| 1787400995 | 20° C | 98% | 1017.7 hPa | 0 mm | - | 24 W/m² | - |
| 1787400691 | 20° C | 98% | 1017.7 hPa | 0 mm | - | 22 W/m² | - |
| 1787400386 | 20° C | 98% | 1017.6 hPa | 0 mm | - | 19 W/m² | - |
* Rain latest hour (hover to see other rain measurements)
** Current wind speed in m/s (hover to see current wind gust speed)